Tracking 31027 objects as of 19-Jul-2025
HD Live streaming from Space Station
objects crossing your sky now

BREEZE-M DEB (TANK)

Track BREEZE-M DEB (TANK) now!
10-day predictions


NORAD ID: 39524
Int'l Code: 2014-007C
Perigee: 296.7 km
Apogee: 19,872.8 km
Inclination: 49.3 °
Period: 350.1 minutes
Semi major axis: 16455 km
RCS: Unknown
Launch date: February 14, 2014
Source: Commonwealth of Independent States (former USSR) (CIS)
Launch site: TYURATAM MISSILE AND SPACE COMPLEX (TTMTR)

Note: This is SATELLITE DEBRIS
Your satellite tracking list
THORAD DELTA 1 DEB
Track 1 satellite(s)




NASA's NSSDC Master Catalog

Two Line Element Set (TLE):
1 39524U 14007C   25198.84718450  .00007140  00000-0  15528-2 0  9992
2 39524  49.3184 139.9368 5948105  30.4002 353.5053  4.11270154158748
Source of the keplerian elements: AFSPC